カタログに戻る

FLOCK 4G 35

運用中科学SSO
NORAD 62683·PAYLOAD·🇺🇸 United States

打ち上げ Jan 14, 2025 から Vandenberg Space Force Base

Loading…

次のパス (今後24時間)

TLE

最新Source: Space-Track

元期: Sep 14, 2026, 05:08 UTC

1 62683U 25009CC  26257.21424124  .00030409  00000-0  64387-3 0  9990
2 62683  97.3918 342.0825 0002844   8.4885 351.6411 15.45059484150393

AllMySatでFLOCK 4G 35をリアルタイム追跡

Download on the App Store